Retour au catalogue

SL-14 R/B

ActifPO
NORAD 18153·ROCKET BODY·🇷🇺 Russia

Lancé Jul 1, 1987 depuis Plesetsk Cosmodrome

Loading…

Prochains Passages (prochaines 24 heures)

TLE

FraisSource: Space-Track

Époque: Sep 14, 2026, 04:34 UTC

1 18153U 87055B   26257.19032002  .00000304  00000-0  31990-4 0  9995
2 18153  82.5022 171.3313 0022108 108.6555 251.7064 14.85758882 97929

Suivez SL-14 R/B en temps réel avec AllMySat

Download on the App Store